1578610800,2020-01-10 00:00,91.23,990.22,0.00,1019.14,4.48,0.00,240,0.1
1578610860,2020-01-10 00:01,90.80,990.18,0.00,1019.09,4.60,0.00,240,0.1
1578610920,2020-01-10 00:02,90.47,990.18,0.00,1019.10,4.63,0.00,240,0.1
1578610981,2020-01-10 00:03,90.42,990.13,0.00,1019.05,4.65,0.00,240,0.1
1578611041,2020-01-10 00:04,90.23,990.13,0.00,1019.04,4.75,0.00,240,0.1
1578611101,2020-01-10 00:05,90.05,990.14,0.00,1019.05,4.73,0.00,240,0.1
1578611161,2020-01-10 00:06,89.93,990.16,0.00,1019.08,4.77,0.00,240,0.1
1578611221,2020-01-10 00:07,90.27,990.14,0.00,1019.05,4.68,0.00,240,0.1
1578611281,2020-01-10 00:08,90.60,990.16,0.00,1019.08,4.65,0.00,240,0.1
1578611341,2020-01-10 00:09,90.61,990.20,0.00,1019.11,4.66,0.00,240,0.1
1578611402,2020-01-10 00:10,90.36,990.17,0.00,1019.09,4.71,0.00,240,0.1
1578611462,2020-01-10 00:11,90.17,990.19,0.00,1019.11,4.83,0.00,240,0.1
1578611522,2020-01-10 00:12,90.12,990.17,0.00,1019.09,4.86,0.00,240,0.1
1578611582,2020-01-10 00:13,89.73,990.13,0.00,1019.04,4.87,0.00,240,0.1
1578611642,2020-01-10 00:14,89.86,990.05,0.00,1018.97,4.91,0.00,240,0.1
1578611702,2020-01-10 00:15,89.71,990.03,0.00,1018.95,4.92,0.00,240,0.1
1578611762,2020-01-10 00:16,89.91,990.05,0.00,1018.97,4.84,0.00,240,0.1
1578611822,2020-01-10 00:17,89.76,990.05,0.00,1018.96,4.89,0.00,240,0.1
1578611882,2020-01-10 00:18,89.56,990.00,0.00,1018.92,4.88,0.00,240,0.1
1578611942,2020-01-10 00:19,89.61,990.02,0.00,1018.93,4.83,0.00,240,0.1
1578612002,2020-01-10 00:20,89.51,990.01,0.00,1018.93,4.87,0.00,240,0.1
1578612062,2020-01-10 00:21,89.36,990.00,0.00,1018.92,4.91,0.00,240,0.1
1578612122,2020-01-10 00:22,89.36,989.92,0.00,1018.84,4.79,0.00,240,0.1
1578612182,2020-01-10 00:23,89.66,989.93,0.00,1018.85,4.74,0.00,240,0.1
1578612242,2020-01-10 00:24,89.64,989.89,0.00,1018.80,4.73,0.00,240,0.1
1578612302,2020-01-10 00:25,89.57,989.86,0.00,1018.77,4.70,0.00,240,0.1
1578612362,2020-01-10 00:26,89.60,989.82,0.00,1018.73,4.76,0.00,240,0.1
1578612422,2020-01-10 00:27,89.79,989.84,0.00,1018.75,4.66,0.00,240,0.1
1578612483,2020-01-10 00:28,90.22,989.81,0.00,1018.72,4.61,0.00,240,0.1
1578612543,2020-01-10 00:29,90.26,989.85,0.00,1018.76,4.45,0.00,240,0.1
1578612603,2020-01-10 00:30,90.52,989.81,0.00,1018.73,4.46,0.00,240,0.1
1578612663,2020-01-10 00:31,90.57,989.79,0.00,1018.71,4.36,0.00,240,0.1
1578612723,2020-01-10 00:32,90.14,989.80,0.00,1018.72,4.53,0.00,240,0.1
1578612783,2020-01-10 00:33,89.84,989.83,0.00,1018.75,4.37,0.00,240,0.1
1578612843,2020-01-10 00:34,90.38,989.83,0.00,1018.74,4.23,0.00,240,0.1
1578612903,2020-01-10 00:35,90.92,989.83,0.00,1018.74,4.26,0.00,240,0.1
1578612963,2020-01-10 00:36,90.73,989.83,0.00,1018.75,4.37,0.00,240,0.1
1578613023,2020-01-10 00:37,90.75,989.88,0.00,1018.79,4.42,0.00,240,0.1
1578613083,2020-01-10 00:38,91.09,989.85,0.00,1018.76,4.39,0.00,240,0.1
1578613143,2020-01-10 00:39,90.66,989.89,0.00,1018.81,4.43,0.00,240,0.1
1578613203,2020-01-10 00:40,90.67,989.90,0.00,1018.82,4.43,0.00,240,0.1
1578613264,2020-01-10 00:41,90.58,989.87,0.00,1018.78,4.40,0.00,240,0.1
1578613324,2020-01-10 00:42,90.53,989.82,0.00,1018.73,4.51,0.00,240,0.1
1578613384,2020-01-10 00:43,90.49,989.89,0.00,1018.81,4.51,0.00,240,0.1
1578613444,2020-01-10 00:44,90.21,989.88,0.00,1018.80,4.59,0.00,240,0.1
1578613504,2020-01-10 00:45,89.97,989.86,0.00,1018.78,4.50,0.00,240,0.1
1578613564,2020-01-10 00:46,90.12,989.88,0.00,1018.79,4.49,0.00,240,0.1
1578613624,2020-01-10 00:47,90.08,989.86,0.00,1018.77,4.50,0.00,240,0.1
1578613684,2020-01-10 00:48,90.31,989.85,0.00,1018.77,4.27,0.00,240,0.1
1578613744,2020-01-10 00:49,90.79,989.87,0.00,1018.78,4.27,0.00,240,0.1
1578613805,2020-01-10 00:50,90.77,989.86,0.00,1018.78,4.32,0.00,240,0.1
1578613865,2020-01-10 00:51,90.74,989.86,0.00,1018.78,4.31,0.00,240,0.1
1578613925,2020-01-10 00:52,90.96,989.88,0.00,1018.79,4.20,0.00,240,0.1
1578613985,2020-01-10 00:53,91.21,989.89,0.00,1018.81,4.17,0.00,240,0.1
1578614045,2020-01-10 00:54,91.33,989.91,0.00,1018.83,4.14,0.00,240,0.1
1578614105,2020-01-10 00:55,91.25,989.90,0.00,1018.82,4.15,0.00,240,0.1
1578614165,2020-01-10 00:56,91.10,989.89,0.00,1018.80,4.05,0.00,240,0.1
1578614225,2020-01-10 00:57,91.51,989.87,0.00,1018.79,4.09,0.00,240,0.1
1578614285,2020-01-10 00:58,91.31,989.93,0.00,1018.85,4.20,0.00,240,0.1
1578614345,2020-01-10 00:59,90.85,989.94,0.00,1018.86,4.16,0.00,240,0.1
1578614406,2020-01-10 01:00,90.79,989.98,0.00,1018.89,4.17,0.00,240,0.1
1578614466,2020-01-10 01:01,90.69,989.98,0.00,1018.89,4.24,0.00,240,0.1
1578614526,2020-01-10 01:02,90.55,989.96,0.00,1018.88,4.14,0.00,240,0.1
1578614586,2020-01-10 01:03,90.76,989.99,0.00,1018.91,4.23,0.00,240,0.1
1578614646,2020-01-10 01:04,90.45,990.07,0.00,1018.98,4.22,0.00,240,0.1
1578614706,2020-01-10 01:05,90.20,990.02,0.00,1018.93,4.34,0.00,240,0.1
1578614766,2020-01-10 01:06,90.00,990.08,0.00,1019.00,4.33,0.00,240,0.1
1578614826,2020-01-10 01:07,89.89,990.06,0.00,1018.97,4.37,0.00,240,0.1
1578614887,2020-01-10 01:08,89.84,990.07,0.00,1018.99,4.26,0.00,240,0.1
1578614947,2020-01-10 01:09,89.75,990.09,0.00,1019.00,4.28,0.00,240,0.1
1578615007,2020-01-10 01:10,89.73,990.09,0.00,1019.00,4.20,0.00,240,0.1
1578615067,2020-01-10 01:11,89.71,990.11,0.00,1019.03,4.19,0.00,240,0.1
1578615127,2020-01-10 01:12,89.60,990.11,0.00,1019.03,4.17,0.00,240,0.1
1578615187,2020-01-10 01:13,89.64,990.08,0.00,1019.00,4.12,0.00,240,0.1
1578615247,2020-01-10 01:14,89.40,990.10,0.00,1019.02,4.18,0.00,240,0.1
1578615307,2020-01-10 01:15,89.58,990.07,0.00,1018.98,4.13,0.00,240,0.1
1578615367,2020-01-10 01:16,89.62,990.06,0.00,1018.97,4.17,0.00,240,0.1
1578615427,2020-01-10 01:17,89.40,990.08,0.00,1018.99,4.21,0.00,240,0.1
1578615487,2020-01-10 01:18,89.45,990.06,0.00,1018.98,4.11,0.00,240,0.1
1578615547,2020-01-10 01:19,88.97,990.06,0.00,1018.97,4.17,0.00,240,0.1
1578615607,2020-01-10 01:20,89.23,990.06,0.00,1018.98,4.08,0.00,240,0.1
1578615668,2020-01-10 01:21,89.58,990.09,0.00,1019.00,4.02,0.00,240,0.1
1578615728,2020-01-10 01:22,89.85,990.08,0.00,1018.99,4.02,0.00,240,0.1
1578615788,2020-01-10 01:23,90.06,990.13,0.00,1019.04,3.93,0.00,240,0.1
1578615848,2020-01-10 01:24,89.94,990.15,0.00,1019.07,3.94,0.00,240,0.1
1578615908,2020-01-10 01:25,89.67,990.20,0.00,1019.12,4.03,0.00,240,0.1
1578615968,2020-01-10 01:26,89.48,990.16,0.00,1019.08,3.98,0.00,240,0.1
1578616028,2020-01-10 01:27,90.11,990.11,0.00,1019.02,3.91,0.00,240,0.1
1578616089,2020-01-10 01:28,89.74,990.08,0.00,1019.00,4.02,0.00,240,0.1
1578616149,2020-01-10 01:29,89.33,990.13,0.00,1019.05,4.02,0.00,240,0.1
1578616209,2020-01-10 01:30,89.48,990.13,0.00,1019.05,3.99,0.00,240,0.1
1578616269,2020-01-10 01:31,89.10,990.16,0.00,1019.08,3.89,0.00,240,0.1
1578616329,2020-01-10 01:32,89.33,990.11,0.00,1019.02,3.88,0.00,240,0.1
1578616389,2020-01-10 01:33,89.61,990.10,0.00,1019.02,3.86,0.00,240,0.1
1578616449,2020-01-10 01:34,89.57,990.09,0.00,1019.00,3.84,0.00,240,0.1
1578616509,2020-01-10 01:35,89.50,990.06,0.00,1018.97,3.81,0.00,240,0.1
1578616569,2020-01-10 01:36,89.67,990.04,0.00,1018.96,3.85,0.00,240,0.1
1578616629,2020-01-10 01:37,89.55,990.06,0.00,1018.98,3.78,0.00,240,0.1
1578616689,2020-01-10 01:38,89.52,990.07,0.00,1018.99,3.54,0.00,240,0.1
1578616750,2020-01-10 01:39,90.30,990.06,0.00,1018.98,3.63,0.00,240,0.1
1578616810,2020-01-10 01:40,89.99,990.00,0.00,1018.91,3.75,0.00,240,0.1
1578616870,2020-01-10 01:41,89.39,990.00,0.00,1018.92,3.90,0.00,240,0.1
1578616930,2020-01-10 01:42,89.29,990.00,0.00,1018.92,3.85,0.00,240,0.1
1578616990,2020-01-10 01:43,89.23,990.02,0.00,1018.93,3.78,0.00,240,0.1
1578617050,2020-01-10 01:44,89.21,990.01,0.00,1018.92,3.74,0.00,240,0.1
1578617110,2020-01-10 01:45,89.38,989.98,0.00,1018.90,3.77,0.00,240,0.1
1578617170,2020-01-10 01:46,89.51,989.97,0.00,1018.88,3.70,0.00,240,0.1
1578617230,2020-01-10 01:47,89.45,990.01,0.00,1018.92,3.69,0.00,240,0.1
1578617291,2020-01-10 01:48,89.57,989.99,0.00,1018.91,3.70,0.00,240,0.1
1578617351,2020-01-10 01:49,89.54,989.99,0.00,1018.90,3.65,0.00,240,0.1
1578617411,2020-01-10 01:50,89.57,989.95,0.00,1018.86,3.75,0.00,240,0.1
1578617471,2020-01-10 01:51,89.70,990.03,0.00,1018.95,3.65,0.00,240,0.1
1578617531,2020-01-10 01:52,89.83,989.99,0.00,1018.91,3.57,0.00,240,0.1
1578617591,2020-01-10 01:53,89.97,989.99,0.00,1018.90,3.64,0.00,240,0.1
1578617651,2020-01-10 01:54,89.71,989.98,0.00,1018.90,3.61,0.00,240,0.1
1578617711,2020-01-10 01:55,89.92,989.96,0.00,1018.88,3.54,0.00,240,0.1
1578617771,2020-01-10 01:56,90.02,989.96,0.00,1018.87,3.53,0.00,240,0.1
1578617831,2020-01-10 01:57,90.13,989.91,0.00,1018.83,3.47,0.00,240,0.1
1578617891,2020-01-10 01:58,90.16,989.93,0.00,1018.85,3.47,0.00,240,0.1
1578617952,2020-01-10 01:59,89.90,989.94,0.00,1018.86,3.49,0.00,240,0.1
1578618012,2020-01-10 02:00,89.93,989.96,0.00,1018.87,3.49,0.00,240,0.1
1578618072,2020-01-10 02:01,89.96,989.90,0.00,1018.82,3.47,0.00,240,0.1
1578618132,2020-01-10 02:02,89.93,989.91,0.00,1018.83,3.42,0.00,240,0.1
1578618192,2020-01-10 02:03,89.88,989.95,0.00,1018.86,3.28,0.00,240,0.1
1578618252,2020-01-10 02:04,90.23,989.96,0.00,1018.88,3.31,0.00,240,0.1
1578618312,2020-01-10 02:05,90.49,989.95,0.00,1018.87,3.28,0.00,240,0.1
1578618372,2020-01-10 02:06,90.36,989.93,0.00,1018.85,3.30,0.00,240,0.1
1578618433,2020-01-10 02:07,90.33,989.96,0.00,1018.88,3.28,0.00,240,0.1
1578618493,2020-01-10 02:08,90.53,989.96,0.00,1018.87,3.34,0.00,240,0.1
1578618553,2020-01-10 02:09,89.70,990.00,0.00,1018.92,3.25,0.00,240,0.1
1578618613,2020-01-10 02:10,90.34,989.96,0.00,1018.88,3.29,0.00,240,0.1
1578618673,2020-01-10 02:11,90.37,989.97,0.00,1018.89,3.33,0.00,240,0.1
1578618733,2020-01-10 02:12,89.94,989.97,0.00,1018.89,3.31,0.00,240,0.1
1578618793,2020-01-10 02:13,90.64,989.98,0.00,1018.89,3.29,0.00,240,0.1
1578618853,2020-01-10 02:14,89.95,989.94,0.00,1018.86,3.40,0.00,240,0.1
1578618914,2020-01-10 02:15,89.79,989.98,0.00,1018.89,3.35,0.00,240,0.1
1578618974,2020-01-10 02:16,89.66,989.98,0.00,1018.89,3.36,0.00,240,0.1
1578619034,2020-01-10 02:17,89.61,989.97,0.00,1018.89,3.48,0.00,240,0.1
1578619094,2020-01-10 02:18,89.61,989.97,0.00,1018.88,3.43,0.00,240,0.1
1578619154,2020-01-10 02:19,89.54,989.96,0.00,1018.88,3.45,0.00,240,0.1
1578619214,2020-01-10 02:20,89.58,989.97,0.00,1018.88,3.39,0.00,240,0.1
1578619274,2020-01-10 02:21,89.52,989.96,0.00,1018.87,3.49,0.00,240,0.1
1578619334,2020-01-10 02:22,90.00,989.92,0.00,1018.84,3.44,0.00,240,0.1
1578619394,2020-01-10 02:23,89.29,989.98,0.00,1018.89,3.42,0.00,240,0.1
1578619454,2020-01-10 02:24,89.25,989.94,0.00,1018.86,3.49,0.00,240,0.1
1578619514,2020-01-10 02:25,89.33,989.93,0.00,1018.84,3.45,0.00,240,0.1
1578619574,2020-01-10 02:26,89.34,989.98,0.00,1018.90,3.45,0.00,240,0.1
1578619634,2020-01-10 02:27,89.23,989.94,0.00,1018.86,3.55,0.00,240,0.1
1578619695,2020-01-10 02:28,88.93,989.95,0.00,1018.87,3.60,0.00,240,0.1
1578619755,2020-01-10 02:29,89.08,989.97,0.00,1018.88,3.50,0.00,240,0.1
1578619815,2020-01-10 02:30,89.11,990.01,0.00,1018.92,3.57,0.00,240,0.1
1578619875,2020-01-10 02:31,88.97,990.03,0.00,1018.94,3.50,0.00,240,0.1
1578619935,2020-01-10 02:32,88.69,990.01,0.00,1018.92,3.67,0.00,240,0.1
1578619995,2020-01-10 02:33,88.34,990.00,0.00,1018.92,3.76,0.00,240,0.1
1578620055,2020-01-10 02:34,87.63,990.00,0.00,1018.92,3.66,0.00,240,0.1
1578620115,2020-01-10 02:35,88.21,989.99,0.00,1018.90,3.63,0.00,240,0.1
1578620175,2020-01-10 02:36,88.30,989.97,0.00,1018.88,3.72,0.00,240,0.1
1578620235,2020-01-10 02:37,88.16,989.91,0.00,1018.82,3.80,0.00,240,0.1
1578620295,2020-01-10 02:38,87.78,989.96,0.00,1018.87,3.76,0.00,240,0.1
1578620356,2020-01-10 02:39,87.68,989.98,0.00,1018.89,3.71,0.00,240,0.1
1578620416,2020-01-10 02:40,87.64,989.97,0.00,1018.88,3.72,0.00,240,0.1
1578620476,2020-01-10 02:41,87.59,989.98,0.00,1018.90,3.68,0.00,240,0.1
1578620536,2020-01-10 02:42,86.83,990.04,0.00,1018.95,3.58,0.00,240,0.1
1578620596,2020-01-10 02:43,87.06,990.04,0.00,1018.96,3.59,0.00,240,0.1
1578620657,2020-01-10 02:44,86.88,990.05,0.00,1018.97,3.58,0.00,240,0.1
1578620717,2020-01-10 02:45,86.82,990.06,0.00,1018.98,3.58,0.00,240,0.1
1578620777,2020-01-10 02:46,86.53,990.07,0.00,1018.98,3.60,0.00,240,0.1
1578620837,2020-01-10 02:47,85.88,990.12,0.00,1019.03,3.61,0.00,240,0.1
1578620897,2020-01-10 02:48,85.90,990.09,0.00,1019.01,3.66,0.00,240,0.1
1578620957,2020-01-10 02:49,86.13,990.12,0.00,1019.04,3.62,0.00,240,0.1
1578621017,2020-01-10 02:50,85.42,990.17,0.00,1019.08,3.56,0.00,240,0.1
1578621077,2020-01-10 02:51,85.94,990.13,0.00,1019.05,3.69,0.00,240,0.1
1578621137,2020-01-10 02:52,85.24,990.17,0.00,1019.09,3.69,0.00,240,0.1
1578621197,2020-01-10 02:53,85.27,990.13,0.00,1019.05,3.72,0.00,240,0.1
1578621257,2020-01-10 02:54,85.49,990.13,0.00,1019.04,3.70,0.00,240,0.1
1578621318,2020-01-10 02:55,85.01,990.14,0.00,1019.05,3.67,0.00,240,0.1
1578621378,2020-01-10 02:56,85.12,990.16,0.00,1019.07,3.73,0.00,240,0.1
1578621438,2020-01-10 02:57,85.23,990.15,0.00,1019.06,3.69,0.00,240,0.1
1578621498,2020-01-10 02:58,85.20,990.10,0.00,1019.01,3.62,0.00,240,0.1
1578621558,2020-01-10 02:59,85.74,990.10,0.00,1019.02,3.58,0.00,240,0.1
1578621618,2020-01-10 03:00,85.59,990.08,0.00,1018.99,3.55,0.00,240,0.1
1578621678,2020-01-10 03:01,85.46,990.11,0.00,1019.03,3.66,0.00,240,0.1
1578621739,2020-01-10 03:02,84.77,990.10,0.00,1019.02,3.53,0.00,240,0.1
1578621799,2020-01-10 03:03,85.17,990.10,0.00,1019.02,3.59,0.00,240,0.1
1578621859,2020-01-10 03:04,85.00,990.02,0.00,1018.94,3.42,0.00,240,0.1
1578621919,2020-01-10 03:05,85.38,990.04,0.00,1018.96,3.51,0.00,240,0.1
1578621979,2020-01-10 03:06,85.41,990.07,0.00,1018.99,3.36,0.00,240,0.1
1578622039,2020-01-10 03:07,85.10,990.04,0.00,1018.96,3.39,0.00,240,0.1
1578622099,2020-01-10 03:08,84.44,990.00,0.00,1018.91,3.36,0.00,240,0.1
1578622159,2020-01-10 03:09,84.85,989.97,0.00,1018.88,3.38,0.00,240,0.1
1578622219,2020-01-10 03:10,84.54,989.93,0.00,1018.85,3.42,0.00,240,0.1
1578622279,2020-01-10 03:11,84.41,989.93,0.00,1018.85,3.49,0.00,240,0.1
1578622340,2020-01-10 03:12,83.71,989.98,0.00,1018.89,3.51,0.00,240,0.1
1578622400,2020-01-10 03:13,83.43,989.95,0.00,1018.86,3.38,0.00,240,0.1
1578622460,2020-01-10 03:14,83.57,989.98,0.00,1018.90,3.44,0.00,240,0.1
1578622520,2020-01-10 03:15,84.05,989.99,0.00,1018.90,3.45,0.00,240,0.1
1578622580,2020-01-10 03:16,83.77,989.98,0.00,1018.89,3.39,0.00,240,0.1
1578622640,2020-01-10 03:17,84.38,990.01,0.00,1018.93,3.37,0.00,240,0.1
1578622701,2020-01-10 03:18,84.49,990.03,0.00,1018.94,3.37,0.00,240,0.1
1578622761,2020-01-10 03:19,84.47,990.00,0.00,1018.92,3.42,0.00,240,0.1
1578622821,2020-01-10 03:20,83.96,990.00,0.00,1018.91,3.47,0.00,240,0.1
1578622881,2020-01-10 03:21,83.42,990.07,0.00,1018.98,3.36,0.00,240,0.1
1578622941,2020-01-10 03:22,84.07,990.08,0.00,1018.99,3.30,0.00,240,0.1
1578623001,2020-01-10 03:23,84.29,990.06,0.00,1018.97,3.25,0.00,240,0.1
1578623062,2020-01-10 03:24,83.77,990.04,0.00,1018.96,3.34,0.00,240,0.1
1578623122,2020-01-10 03:25,84.03,990.02,0.00,1018.94,3.38,0.00,240,0.1
1578623182,2020-01-10 03:26,83.86,990.04,0.00,1018.96,3.34,0.00,240,0.1
1578623242,2020-01-10 03:27,84.39,990.09,0.00,1019.01,3.25,0.00,240,0.1
1578623302,2020-01-10 03:28,84.32,990.15,0.00,1019.07,3.18,0.00,240,0.1
1578623362,2020-01-10 03:29,84.80,990.14,0.00,1019.06,3.30,0.00,240,0.1
1578623422,2020-01-10 03:30,84.21,990.10,0.00,1019.02,3.23,0.00,240,0.1
1578623483,2020-01-10 03:31,84.38,990.16,0.00,1019.07,3.22,0.00,240,0.1
1578623543,2020-01-10 03:32,84.59,990.11,0.00,1019.02,3.11,0.00,240,0.1
1578623603,2020-01-10 03:33,84.48,990.15,0.00,1019.06,3.03,0.00,240,0.1
1578623663,2020-01-10 03:34,84.90,990.14,0.00,1019.05,2.81,0.00,240,0.1
1578623723,2020-01-10 03:35,85.17,990.11,0.00,1019.03,2.85,0.00,240,0.1
1578623783,2020-01-10 03:36,85.07,990.18,0.00,1019.10,2.94,0.00,240,0.1
1578623843,2020-01-10 03:37,85.40,990.09,0.00,1019.01,2.83,0.00,240,0.1
1578623903,2020-01-10 03:38,85.10,990.06,0.00,1018.97,2.95,0.00,240,0.1
1578623964,2020-01-10 03:39,84.70,990.13,0.00,1019.04,2.91,0.00,240,0.1
1578624024,2020-01-10 03:40,85.03,990.13,0.00,1019.05,2.93,0.00,240,0.1
1578624084,2020-01-10 03:41,84.42,990.14,0.00,1019.05,2.86,0.00,240,0.1
1578624144,2020-01-10 03:42,84.58,990.10,0.00,1019.02,2.97,0.00,240,0.1
1578624204,2020-01-10 03:43,84.65,990.11,0.00,1019.03,2.94,0.00,240,0.1
1578624265,2020-01-10 03:44,84.31,990.09,0.00,1019.01,2.83,0.00,240,0.1
1578624325,2020-01-10 03:45,84.39,990.13,0.00,1019.04,2.78,0.00,240,0.1
1578624385,2020-01-10 03:46,84.71,990.11,0.00,1019.02,2.85,0.00,240,0.1
1578624445,2020-01-10 03:47,84.10,990.12,0.00,1019.04,2.82,0.00,240,0.1
1578624505,2020-01-10 03:48,85.02,990.07,0.00,1018.98,2.75,0.00,240,0.1
1578624565,2020-01-10 03:49,84.82,990.05,0.00,1018.97,2.77,0.00,240,0.1
1578624625,2020-01-10 03:50,84.65,990.11,0.00,1019.03,2.60,0.00,240,0.1
1578624685,2020-01-10 03:51,84.79,990.06,0.00,1018.97,2.51,0.00,240,0.1
1578624745,2020-01-10 03:52,85.28,990.02,0.00,1018.94,2.43,0.00,240,0.1
1578624805,2020-01-10 03:53,84.53,990.02,0.00,1018.94,2.48,0.00,240,0.1
1578624866,2020-01-10 03:54,84.84,990.04,0.00,1018.96,2.59,0.00,240,0.1
1578624926,2020-01-10 03:55,84.73,989.99,0.00,1018.90,2.54,0.00,240,0.1
1578624986,2020-01-10 03:56,84.75,990.02,0.00,1018.93,2.40,0.00,240,0.1
1578625046,2020-01-10 03:57,85.11,990.01,0.00,1018.93,2.32,0.00,240,0.1
1578625106,2020-01-10 03:58,85.15,990.02,0.00,1018.93,2.32,0.00,240,0.1
1578625166,2020-01-10 03:59,84.99,990.01,0.00,1018.92,2.34,0.00,240,0.1
1578625226,2020-01-10 04:00,85.04,990.01,0.00,1018.93,2.33,0.00,240,0.1
1578625287,2020-01-10 04:01,84.97,989.96,0.00,1018.87,2.45,0.00,240,0.1
1578625347,2020-01-10 04:02,85.00,989.99,0.00,1018.90,2.40,0.00,240,0.1
1578625407,2020-01-10 04:03,84.41,990.00,0.00,1018.92,2.35,0.00,240,0.1
1578625467,2020-01-10 04:04,84.90,989.98,0.00,1018.89,2.34,0.00,240,0.1
1578625527,2020-01-10 04:05,84.29,990.04,0.00,1018.95,2.36,0.00,240,0.1
1578625587,2020-01-10 04:06,84.38,989.99,0.00,1018.91,2.32,0.00,240,0.1
1578625647,2020-01-10 04:07,84.25,989.98,0.00,1018.89,2.43,0.00,240,0.1
1578625708,2020-01-10 04:08,84.66,990.01,0.00,1018.92,2.35,0.00,240,0.1
1578625768,2020-01-10 04:09,84.50,990.01,0.00,1018.92,2.34,0.00,240,0.1
1578625828,2020-01-10 04:10,84.53,990.03,0.00,1018.95,2.34,0.00,240,0.1
1578625888,2020-01-10 04:11,84.76,990.04,0.00,1018.96,2.46,0.00,240,0.1
1578625948,2020-01-10 04:12,84.18,990.02,0.00,1018.93,2.55,0.00,240,0.1
1578626008,2020-01-10 04:13,83.94,990.00,0.00,1018.92,2.62,0.00,240,0.1
1578626068,2020-01-10 04:14,83.61,989.98,0.00,1018.90,2.72,0.00,240,0.1
1578626128,2020-01-10 04:15,83.93,989.98,0.00,1018.90,2.63,0.00,240,0.1
1578626188,2020-01-10 04:16,83.46,990.02,0.00,1018.94,2.66,0.00,240,0.1
1578626248,2020-01-10 04:17,83.73,990.01,0.00,1018.92,2.55,0.00,240,0.1
1578626309,2020-01-10 04:18,84.00,990.05,0.00,1018.96,2.65,0.00,240,0.1
1578626369,2020-01-10 04:19,83.71,990.05,0.00,1018.97,2.65,0.00,240,0.1
1578626429,2020-01-10 04:20,83.75,990.05,0.00,1018.96,2.60,0.00,240,0.1
1578626489,2020-01-10 04:21,83.96,990.07,0.00,1018.99,2.62,0.00,240,0.1
1578626549,2020-01-10 04:22,83.97,990.05,0.00,1018.97,2.45,0.00,240,0.1
1578626609,2020-01-10 04:23,83.37,990.10,0.00,1019.02,2.56,0.00,240,0.1
1578626669,2020-01-10 04:24,83.50,990.10,0.00,1019.01,2.58,0.00,240,0.1
1578626729,2020-01-10 04:25,82.88,990.09,0.00,1019.01,2.73,0.00,240,0.1
1578626790,2020-01-10 04:26,83.12,990.08,0.00,1019.00,2.73,0.00,240,0.1
1578626850,2020-01-10 04:27,82.68,990.09,0.00,1019.01,2.78,0.00,240,0.1
1578626910,2020-01-10 04:28,82.61,990.08,0.00,1019.00,2.70,0.00,240,0.1
1578626970,2020-01-10 04:29,83.18,990.07,0.00,1018.99,2.62,0.00,240,0.1
1578627030,2020-01-10 04:30,83.45,990.04,0.00,1018.95,2.59,0.00,240,0.1
1578627090,2020-01-10 04:31,82.91,990.07,0.00,1018.99,2.56,0.00,240,0.1
1578627150,2020-01-10 04:32,82.38,989.99,0.00,1018.91,2.69,0.00,240,0.1
1578627210,2020-01-10 04:33,82.72,990.03,0.00,1018.95,2.46,0.00,240,0.1
1578627271,2020-01-10 04:34,83.08,990.05,0.00,1018.96,2.52,0.00,240,0.1
1578627331,2020-01-10 04:35,82.86,990.04,0.00,1018.96,2.53,0.00,240,0.1
1578627391,2020-01-10 04:36,82.71,990.03,0.00,1018.95,2.56,0.00,240,0.1
1578627451,2020-01-10 04:37,82.44,990.08,0.00,1019.00,2.60,0.00,240,0.1
1578627511,2020-01-10 04:38,82.19,990.04,0.00,1018.95,2.55,0.00,240,0.1
1578627571,2020-01-10 04:39,82.83,989.99,0.00,1018.91,2.50,0.00,240,0.1
1578627631,2020-01-10 04:40,82.79,989.99,0.00,1018.90,2.50,0.00,240,0.1
1578627691,2020-01-10 04:41,82.50,990.02,0.00,1018.93,2.47,0.00,240,0.1
1578627752,2020-01-10 04:42,82.50,990.02,0.00,1018.93,2.52,0.00,240,0.1
1578627812,2020-01-10 04:43,82.68,990.03,0.00,1018.94,2.46,0.00,240,0.1
1578627872,2020-01-10 04:44,82.71,990.02,0.00,1018.94,2.56,0.00,240,0.1
1578627932,2020-01-10 04:45,83.28,990.01,0.00,1018.93,2.45,0.00,240,0.1
1578627992,2020-01-10 04:46,83.68,990.04,0.00,1018.96,2.28,0.00,240,0.1
1578628052,2020-01-10 04:47,83.34,990.02,0.00,1018.94,2.45,0.00,240,0.1
1578628112,2020-01-10 04:48,82.82,990.04,0.00,1018.96,2.59,0.00,240,0.1
1578628172,2020-01-10 04:49,84.11,990.07,0.00,1018.99,2.33,0.00,240,0.1
1578628233,2020-01-10 04:50,83.57,990.03,0.00,1018.95,2.13,0.00,240,0.1
1578628293,2020-01-10 04:51,84.32,990.00,0.00,1018.91,2.10,0.00,240,0.1
1578628353,2020-01-10 04:52,84.10,989.97,0.00,1018.89,2.16,0.00,240,0.1
1578628413,2020-01-10 04:53,83.92,989.95,0.00,1018.87,2.10,0.00,240,0.1
1578628473,2020-01-10 04:54,84.29,989.96,0.00,1018.87,2.08,0.00,240,0.1
1578628533,2020-01-10 04:55,83.75,989.93,0.00,1018.84,2.04,0.00,240,0.1
1578628593,2020-01-10 04:56,84.45,989.93,0.00,1018.85,2.10,0.00,240,0.1
1578628653,2020-01-10 04:57,84.00,989.94,0.00,1018.86,2.16,0.00,240,0.1
1578628713,2020-01-10 04:58,84.16,989.95,0.00,1018.87,2.19,0.00,240,0.1
1578628773,2020-01-10 04:59,84.27,989.91,0.00,1018.82,2.19,0.00,240,0.1
1578628833,2020-01-10 05:00,84.34,989.91,0.00,1018.83,1.88,0.00,240,0.1
1578628894,2020-01-10 05:01,84.59,989.95,0.00,1018.87,2.12,0.00,240,0.1
1578628954,2020-01-10 05:02,84.43,989.93,0.00,1018.85,2.05,0.00,240,0.1
1578629014,2020-01-10 05:03,84.77,989.91,0.00,1018.82,1.84,0.00,240,0.1
1578629074,2020-01-10 05:04,84.31,989.90,0.00,1018.81,1.90,0.00,240,0.1
1578629134,2020-01-10 05:05,83.96,989.92,0.00,1018.84,1.75,0.00,240,0.1
1578629194,2020-01-10 05:06,84.53,989.98,0.00,1018.90,1.55,0.00,240,0.1
1578629254,2020-01-10 05:07,85.32,989.89,0.00,1018.81,1.75,0.00,240,0.1
1578629314,2020-01-10 05:08,85.69,989.88,0.00,1018.80,1.85,0.00,240,0.1
1578629374,2020-01-10 05:09,84.58,989.92,0.00,1018.84,1.97,0.00,240,0.1
1578629434,2020-01-10 05:10,84.98,989.85,0.00,1018.77,1.92,0.00,240,0.1
1578629494,2020-01-10 05:11,85.08,989.88,0.00,1018.79,1.93,0.00,240,0.1
1578629554,2020-01-10 05:12,85.43,989.85,0.00,1018.76,1.99,0.00,240,0.1
1578629615,2020-01-10 05:13,84.62,989.89,0.00,1018.80,1.98,0.00,240,0.1
1578629675,2020-01-10 05:14,84.13,989.90,0.00,1018.81,1.86,0.00,240,0.1
1578629735,2020-01-10 05:15,84.24,989.91,0.00,1018.83,1.93,0.00,240,0.1
1578629795,2020-01-10 05:16,83.81,989.90,0.00,1018.82,1.88,0.00,240,0.1
1578629855,2020-01-10 05:17,84.22,989.95,0.00,1018.87,1.65,0.00,240,0.1
1578629915,2020-01-10 05:18,84.28,990.00,0.00,1018.91,1.73,0.00,240,0.1
1578629975,2020-01-10 05:19,83.67,989.92,0.00,1018.84,1.94,0.00,240,0.1
1578630035,2020-01-10 05:20,83.81,989.94,0.00,1018.86,1.88,0.00,240,0.1
1578630095,2020-01-10 05:21,84.31,989.89,0.00,1018.81,1.79,0.00,240,0.1
1578630156,2020-01-10 05:22,85.05,989.95,0.00,1018.86,1.55,0.00,240,0.1
1578630216,2020-01-10 05:23,85.10,989.95,0.00,1018.86,1.66,0.00,240,0.1
1578630276,2020-01-10 05:24,85.06,989.97,0.00,1018.88,1.68,0.00,240,0.1
1578630336,2020-01-10 05:25,84.62,989.93,0.00,1018.85,1.71,0.00,240,0.1
1578630396,2020-01-10 05:26,84.74,989.98,0.00,1018.89,1.65,0.00,240,0.1
1578630456,2020-01-10 05:27,84.73,989.95,0.00,1018.86,1.70,0.00,240,0.1
1578630516,2020-01-10 05:28,84.10,989.96,0.00,1018.88,1.69,0.00,240,0.1
1578630577,2020-01-10 05:29,85.22,989.94,0.00,1018.86,1.72,0.00,240,0.1
1578630637,2020-01-10 05:30,84.77,989.97,0.00,1018.88,1.73,0.00,240,0.1
1578630697,2020-01-10 05:31,84.84,989.97,0.00,1018.89,1.40,0.00,240,0.1
1578630757,2020-01-10 05:32,85.13,990.02,0.00,1018.94,1.42,0.00,240,0.1